ONEWEB-0046 (45447 NORAD) Tracking and Keplerian Element Data

This shows tracking and keplerian element data for the satellite.

Feedback or suggestion? Click here.




ElementValue
Catalog45447
NameONEWEB-0046
Epoch Orbit175
Epoch Day193.91667824
Epoch Year2020
RAAN102.3676
Inclination87.5716
Eccentricity0.0024661
Argument of Perigee249.095
Mean Anonmoly0.1445
Mean Motion14.89943631
Decay Rate-0.00055896
L11 45447U 20020Z 20193.91667824 -.00055896 00000-0 -58295-2 0 9992
L22 45447 87.5716 102.3676 0024661 249.0950 0.1445 14.89943631 1758

Live tracking and technical data element details for ONEWEB-0046 (NORAD 45447). ONEWEB-0046 can be tracked NOW for your location showing map with azimuth and elevation plus other details from your city location.

Track the satellite on the map from your city or location and see movement details for azimuth, elevation, latitude, longitude, range, height, and movement on the map or in text.







IsCatalogInMostPopularTable: catalog: 45447, numindb: 22
Update: records affected: 1



GetName: 45447 ONEWEB-0046

Hit Count: updated at: Mon, 13 Jul 2020 03:48:18 GMT